ティルブルック彗星

C/1997 O1 ( Tilbrook )

English version
Home page
Updated on June 27, 1998

---------------------------------------------------------------------

・ プロフィール

発見日 1997年7月22日
発見光度 10等
発見者 J. Tillbrook (Clare, S. Australia)

・ 軌道要素

   The following improved orbital elements by Kenji Muraoka, are 
  from 111 observations 1997 July 23 to 1998 Mar. 23, perturbations
  by 9 Planets, Moon and 5 minor planets were taken into account.
   The mean residual is +/- 0.67 arc seconds.

      Epoch  =  1997 July 11.0  TT       JDT = 2450640.5
          T  =  1997 July 13.41925       +/- 0.00021 (m.e.) TT
       Peri. =  336.18714                +/- 0.00018
       Node  =  231.24573                +/- 0.00013   (2000.0)
       Incl. =  115.80202                +/- 0.00019
          q  =    1.3718028              +/- 0.0000039 AU
          e  =    0.9842429              +/- 0.0000080
        1/a  =   +0.0114864              +/- 0.0000058 1/AU
        ( P  =    812 years )

・ 星図

・ 1997年 5月 2日〜1997年 9月19日
・ 1997年 8月10日〜1998年12月23日

・ 光度変化

        m1 = 7.4 + 5 logΔ + 16.0 log r

---------------------------------------------------------------------

軌道要素は村岡健治氏の計算によるものです。
星図は StellaNavigator Ver.2.0 for Windows (アストロアーツ 編著 / アスキー出版局刊) で作成したものです。
光度グラフはComet for Windowsで作成したものです。

---------------------------------------------------------------------

Copyright(C) Seiichi Yoshida (comet@aerith.net). All rights reserved.